Location: Newark
(42.1211°N, 12.2319°E)
Time: 15:26:23
(UTC+00:00)

ISS - Visible Passes

Search period start: 15 December 2019 00:00
Search period end: 25 December 2019 00:00
Orbit: 411 x 421 km, 51.6° (Epoch: 16 December)

Date Brightness Start Highest point End Pass type
(mag) Time Alt. Az. Time Alt. Az. Time Alt. Az.
21 Dec -0.9 05:19:11 10° S 05:21:41 20° SE 05:24:12 10° E visible
22 Dec -0.5 04:32:06 10° SSE 04:33:20 12° SE 04:34:33 10° ESE visible
23 Dec -3.1 05:17:49 10° SW 05:21:04 55° SE 05:24:19 10° ENE visible
24 Dec -2.1 04:31:35 26° S 04:32:35 31° SE 04:35:34 10° ENE visible
24 Dec -3.1 06:06:09 10° W 06:09:16 36° NNW 06:12:23 10° NE visible
